Bridgeport, WV

1:16 PM EST on January 22, 2017 (GMT -0500)
Benedum

Weather History for KCKB - January, 2014

Change the Weather History Date:

Monday, January 13, 2014

  Actual Average Record
Temperature  
Mean Temperature 42 °F -  
Max Temperature 57 °F 37 °F 72 °F (2005)
Min Temperature 28 °F 18 °F -13 °F (1977)
Degree Days  
Heating Degree Days 22    
Moisture  
Dew Point 32 °F    
Average Humidity 69    
Maximum Humidity 93    
Minimum Humidity 31    
Precipitation  
Precipitation 0.17 in - - ()
Sea Level Pressure  
Sea Level Pressure 29.90 in    
Wind  
Wind Speed 4 mph (SSW)    
Max Wind Speed 18 mph    
Max Gust Speed 29 mph    
Visibility 10 miles    
Events      
Averages and records for this station are not official NWS values.
T = Trace of Precipitation, MM = Missing Value Source: NWS Daily Summary

Daily Weather History Graph

Daily Weather History Graph

Search for Another Location

Airport or City:

Trip Planner

Search our weather history database for the weather conditions in past years. The results will help you decide how hot, cold, wet, or windy it might be!

Date:

Astronomy

Jan. 13, 2014 Rise Set
Actual Time 7:39 AM EST 5:19 PM EST
Civil Twilight 7:10 AM EST 5:49 PM EST
Nautical Twilight 6:37 AM EST 6:22 PM EST
Astronomical Twilight 6:04 AM EST 6:54 PM EST
Moon 3:33 PM EST (1/13) 5:27 AM EST (1/13)
Length of Visible Light 10h 39m
Length of Day
9h 40m
Waxing Gibbous, 95% of the Moon is Illuminated
Jan 13
Waxing Gibbous
Jan 15
Full
Jan 24
Last Quarter
Jan 30
New
Feb 6
First Quarter

Hourly Weather History & Observations

Time (EST) Temp. Windchill Dew Point Humidity Pressure Visibility Wind Dir Wind Speed Gust Speed Precip Events Conditions
12:53 AM 34.0 °F - 27.0 °F 75% 30.02 in 10.0 mi Calm Calm - N/A   Clear
1:53 AM 34.0 °F 31.0 °F 25.0 °F 70% 30.00 in 10.0 mi SSE 3.5 mph - N/A   Clear
2:53 AM 30.9 °F 27.5 °F 25.0 °F 79% 30.01 in 10.0 mi SW 3.5 mph - N/A   Clear
3:53 AM 30.0 °F - 24.1 °F 79% 29.99 in 10.0 mi Calm Calm - N/A   Clear
4:53 AM 28.0 °F - 24.1 °F 85% 30.01 in 10.0 mi Calm Calm - N/A   Clear
5:53 AM 28.9 °F - 24.1 °F 82% 30.00 in 10.0 mi Calm Calm - N/A   Clear
6:53 AM 28.0 °F - 23.0 °F 81% 30.00 in 10.0 mi Calm Calm - N/A   Scattered Clouds
7:53 AM 28.9 °F - 24.1 °F 82% 29.98 in 10.0 mi Calm Calm - N/A   Clear
8:53 AM 33.1 °F - 26.1 °F 75% 29.97 in 10.0 mi Calm Calm - N/A   Clear
9:53 AM 46.0 °F 43.9 °F 26.1 °F 46% 29.94 in 10.0 mi SSE 4.6 mph - N/A   Clear
10:53 AM 54.0 °F - 26.1 °F 34% 29.92 in 10.0 mi South 5.8 mph - N/A   Clear
11:53 AM 57.9 °F - 27.0 °F 31% 29.88 in 10.0 mi SW 12.7 mph 18.4 mph N/A   Clear
12:53 PM 57.9 °F - 27.0 °F 31% 29.85 in 10.0 mi SW 18.4 mph 28.8 mph N/A   Scattered Clouds
1:53 PM 57.9 °F - 30.0 °F 35% 29.83 in 10.0 mi SSW 12.7 mph - N/A   Partly Cloudy
2:53 PM 55.0 °F - 37.0 °F 51% 29.82 in 10.0 mi SW 12.7 mph 18.4 mph N/A   Overcast
3:53 PM 51.1 °F - 41.0 °F 68% 29.86 in 6.0 mi SW 11.5 mph 19.6 mph 0.01 in   Haze
4:53 PM 50.0 °F - 41.0 °F 71% 29.84 in 10.0 mi SW 12.7 mph - 0.03 in   Overcast
5:53 PM 48.0 °F - 42.1 °F 80% 29.84 in 9.0 mi SSW 4.6 mph - 0.01 in   Overcast
6:53 PM 48.0 °F - 41.0 °F 77% 29.84 in 9.0 mi SSW 10.4 mph - 0.04 in   Overcast
7:53 PM 46.9 °F - 42.1 °F 83% 29.83 in 7.0 mi South 10.4 mph 17.3 mph 0.05 in   Overcast
8:53 PM 46.9 °F - 42.1 °F 83% 29.80 in 10.0 mi South 9.2 mph 18.4 mph 0.01 in   Overcast
9:53 PM 46.9 °F - 42.1 °F 83% 29.78 in 10.0 mi South 9.2 mph - 0.01 in   Overcast
10:53 PM 46.9 °F - 42.1 °F 83% 29.76 in 10.0 mi West 3.5 mph - N/A   Overcast
11:53 PM 45.0 °F - 43.0 °F 93% 29.75 in 10.0 mi Calm Calm - 0.01 in   Overcast